Regional Weather Roundup
Issued by NWS

Home | Current Version | Previous Version | Graphics & Text | Print | Product List | Glossary On
Versions: 1 2 3 4 5 6 7 8 9 10 11 12 13 14 15 16 17 18 19 20 21 22 23 24 25 26 27 28 29 30 31 32 33 34 35 36 37 38 39 40 41 42 43 44 45 46 47 48 49 50
000
ASUS43 KFSD 251510
RWRSD

WEATHER ROUNDUP FOR SOUTH DAKOTA
NATIONAL WEATHER SERVICE SIOUX FALLS SD
1000 AM CDT THU MAY 25 2017

NOTE: "FAIR" INDICATES FEW OR NO CLOUDS BELOW 12,000 FEET WITH NO
SIGNIFICANT WEATHER AND/OR OBSTRUCTIONS TO VISIBILITY.


SDZ001>005-009-010-012>017-251600-
NORTHWEST AND NORTH CENTRAL SOUTH DAKOTA

CITY           SKY/WX    TMP DP  RH WIND       PRES   REMARKS
BUFFALO          N/A     59  33  37 W17       29.43S
FAITH            N/A     59  48  67 NW21G26   29.45S
MOBRIDGE       CLOUDY    58  46  64 NW8       29.39R
$$

SDZ012>016-024>037-041>051-057-063-072>074-251600-
SOUTHWEST AND SOUTH CENTRAL SOUTH DAKOTA

CITY           SKY/WX    TMP DP  RH WIND       PRES   REMARKS
RAPID CTY ARPT CLOUDY    62  29  28 NW16      29.52S
PIERRE         CLOUDY    58  45  62 NW17      29.40R
CUSTER         CLOUDY    54  38  54 CALM      29.57F
ELLSWORTH AFB  MOSUNNY   60  31  32 N16       29.52R
PHILIP         CLOUDY    58  48  69 NW18G24   29.46R
PINE RIDGE     PTSUNNY   61  41  47 N9        29.54R
SPEARFISH      FAIR      54  30  40 W8        29.56S
WINNER         FAIR      66  51  58 SW10      29.45R
$$

SDZ004>011-016>023-039-040-251600-
NORTHEAST SOUTH DAKOTA

CITY           SKY/WX    TMP DP  RH WIND       PRES   REMARKS
ABERDEEN       SUNNY     63  44  50 S26G36    29.44S
WATERTOWN      SUNNY     61  47  59 S25G39    29.49F
BROOKINGS      SUNNY     59  48  67 S21G30    29.55F
SISSETON         N/A     62  49  62 S25G35    29.51S
$$

SDZ017-020-022-023-036>040-048>070-251600-
SOUTHEAST SOUTH DAKOTA

CITY           SKY/WX    TMP DP  RH WIND       PRES   REMARKS
SIOUX FALLS    MOSUNNY   62  49  62 S22G31    29.57F
HURON          SUNNY     62  46  55 S28G37    29.44F
CHAMBERLAIN    CLOUDY    67  52  58 S15       29.43S
MITCHELL       SUNNY     64  47  53 S25G36    29.48F
YANKTON        SUNNY     63  48  58 S18       29.55F
$$

ABBREVIATIONS USED IN REMARKS
   TC - TEMPERATURE IN CELSIUS
  WCI - WIND CHILL INDEX
   HX - HEAT INDEX
  VSB - VISIBILITY




USA.gov is the U.S. government's official web portal to all federal, state and local government web resources and services.